Year,Month,Day,Hour,Minute,Value (Times are PST for temperature in C)
2018,08,10,10,27,19.30
2018,08,10,10,28,19.30
2018,08,10,10,29,19.30
2018,08,10,10,30,19.30
2018,08,10,10,31,19.30
2018,08,10,10,32,19.30
2018,08,10,10,33,19.30
2018,08,10,10,34,19.30
2018,08,10,10,35,19.30
2018,08,10,10,36,19.30
2018,08,10,10,37,19.40
2018,08,10,10,38,19.40
2018,08,10,10,39,19.40
2018,08,10,10,40,19.40
2018,08,10,10,41,19.30
2018,08,10,10,42,19.20
2018,08,10,10,43,19.20
2018,08,10,10,44,19.10
2018,08,10,10,45,19.10
2018,08,10,10,46,19.10
2018,08,10,10,47,19.10
2018,08,10,10,48,19.10
2018,08,10,10,49,19.00
2018,08,10,10,50,18.90
2018,08,10,10,51,18.90
2018,08,10,10,52,18.80
2018,08,10,10,53,18.70
2018,08,10,10,54,18.70
2018,08,10,10,55,18.70
2018,08,10,10,56,18.70
2018,08,10,10,57,18.60
2018,08,10,10,58,18.60
2018,08,10,10,59,18.50
2018,08,10,11,00,18.50
2018,08,10,11,01,18.40
2018,08,10,11,02,18.40
2018,08,10,11,03,18.30
2018,08,10,11,04,18.30
2018,08,10,11,05,18.20
2018,08,10,11,06,18.20
2018,08,10,11,07,18.20
2018,08,10,11,08,18.20
2018,08,10,11,09,18.20
2018,08,10,11,10,18.30
2018,08,10,11,11,18.30
2018,08,10,11,12,18.30
2018,08,10,11,13,18.30
2018,08,10,11,14,18.30
2018,08,10,11,15,18.30
2018,08,10,11,16,18.30
2018,08,10,11,17,18.30
2018,08,10,11,18,18.30
2018,08,10,11,19,18.30
2018,08,10,11,20,18.30
2018,08,10,11,21,18.20
2018,08,10,11,22,18.20
2018,08,10,11,23,18.20
2018,08,10,11,24,18.20
2018,08,10,11,25,18.30
2018,08,10,11,26,18.30
2018,08,10,11,27,18.40
2018,08,10,11,28,18.40
2018,08,10,11,29,18.40
2018,08,10,11,30,18.40
2018,08,10,11,31,18.40
2018,08,10,11,32,18.50
2018,08,10,11,33,18.50
2018,08,10,11,34,18.50
2018,08,10,11,35,18.50
2018,08,10,11,36,18.60
2018,08,10,11,37,18.60
2018,08,10,11,38,18.70
2018,08,10,11,39,18.80
2018,08,10,11,40,18.80
2018,08,10,11,41,18.80
2018,08,10,11,42,18.90
2018,08,10,11,43,18.90
2018,08,10,11,44,19.00
2018,08,10,11,45,19.00
2018,08,10,11,46,19.10
2018,08,10,11,47,19.10
2018,08,10,11,48,19.10
2018,08,10,11,49,19.10
2018,08,10,11,50,19.10
2018,08,10,11,51,19.10
2018,08,10,11,52,19.10
2018,08,10,11,53,19.20
2018,08,10,11,54,19.20
2018,08,10,11,55,19.20
2018,08,10,11,56,19.20
2018,08,10,11,57,19.20
2018,08,10,11,58,19.30
2018,08,10,11,59,19.30
2018,08,10,12,00,19.40
2018,08,10,12,01,19.50
2018,08,10,12,02,19.60
2018,08,10,12,03,19.70
2018,08,10,12,04,19.80
2018,08,10,12,05,20.00
2018,08,10,12,06,20.00
2018,08,10,12,07,20.10
2018,08,10,12,08,20.20
2018,08,10,12,09,20.20
2018,08,10,12,10,20.30
2018,08,10,12,11,20.30
2018,08,10,12,12,20.30
2018,08,10,12,13,20.30
2018,08,10,12,14,20.30
2018,08,10,12,15,20.30
2018,08,10,12,16,20.30
2018,08,10,12,17,20.20
2018,08,10,12,18,20.20
2018,08,10,12,19,20.10
2018,08,10,12,20,20.10
2018,08,10,12,21,20.00
2018,08,10,12,22,19.90
2018,08,10,12,23,19.80
2018,08,10,12,24,19.80
2018,08,10,12,25,19.70
2018,08,10,12,26,19.60
2018,08,10,12,27,19.50
2018,08,10,12,28,19.40
2018,08,10,12,29,19.30
2018,08,10,12,30,19.30
2018,08,10,12,31,19.30
2018,08,10,12,32,19.30
2018,08,10,12,33,19.30
2018,08,10,12,34,19.30
2018,08,10,12,35,19.30
2018,08,10,12,36,19.30
2018,08,10,12,37,19.30
2018,08,10,12,38,19.30
2018,08,10,12,39,19.40
2018,08,10,12,40,19.50
2018,08,10,12,41,19.60
2018,08,10,12,42,19.80
2018,08,10,12,43,19.80
2018,08,10,12,44,19.90
2018,08,10,12,45,20.00
2018,08,10,12,46,20.10
2018,08,10,12,47,20.10
2018,08,10,12,48,20.20
2018,08,10,12,49,20.20
2018,08,10,12,50,20.10
2018,08,10,12,51,20.10
2018,08,10,12,52,20.10
2018,08,10,12,53,20.10
2018,08,10,12,54,20.10
2018,08,10,12,55,20.10
2018,08,10,12,56,20.10
2018,08,10,12,57,20.10
2018,08,10,12,58,20.10
2018,08,10,12,59,20.20
2018,08,10,13,00,20.20
2018,08,10,13,01,20.20
2018,08,10,13,02,20.30
2018,08,10,13,03,20.30
2018,08,10,13,04,20.30
2018,08,10,13,05,20.30
2018,08,10,13,06,20.30
2018,08,10,13,07,20.30
2018,08,10,13,08,20.30
2018,08,10,13,09,20.30
2018,08,10,13,10,20.30
2018,08,10,13,11,20.30
2018,08,10,13,12,20.30
2018,08,10,13,13,20.40
2018,08,10,13,14,20.50
2018,08,10,13,15,20.60
2018,08,10,13,16,20.70
2018,08,10,13,17,20.70
2018,08,10,13,18,20.80
2018,08,10,13,19,20.70
2018,08,10,13,20,20.70
2018,08,10,13,21,20.70
2018,08,10,13,22,20.70
2018,08,10,13,23,20.70
2018,08,10,13,24,20.70
2018,08,10,13,25,20.70
2018,08,10,13,26,20.80
2018,08,10,13,27,20.80
2018,08,10,13,28,20.70
2018,08,10,13,29,20.70
2018,08,10,13,30,20.70
2018,08,10,13,31,20.80
2018,08,10,13,32,20.80
2018,08,10,13,33,20.80
2018,08,10,13,34,20.70
2018,08,10,13,35,20.60
2018,08,10,13,36,20.60
2018,08,10,13,37,20.60
2018,08,10,13,38,20.60
2018,08,10,13,39,20.60
2018,08,10,13,40,20.60
2018,08,10,13,41,20.60
2018,08,10,13,42,20.60
2018,08,10,13,43,20.60
2018,08,10,13,44,20.60
2018,08,10,13,45,20.60
2018,08,10,13,46,20.60
2018,08,10,13,47,20.60
2018,08,10,13,48,20.60
2018,08,10,13,49,20.60
2018,08,10,13,50,20.60
2018,08,10,13,51,20.60
2018,08,10,13,52,20.60
2018,08,10,13,53,20.60
2018,08,10,13,54,20.60
2018,08,10,13,55,20.60
2018,08,10,13,56,20.60
2018,08,10,13,57,20.60
2018,08,10,13,58,20.60
2018,08,10,13,59,20.70
2018,08,10,14,00,20.70
2018,08,10,14,01,20.70
2018,08,10,14,02,20.70
2018,08,10,14,03,20.80
2018,08,10,14,04,20.80
2018,08,10,14,05,20.70
2018,08,10,14,06,20.80
2018,08,10,14,07,20.80
2018,08,10,14,08,20.80
2018,08,10,14,09,20.80
2018,08,10,14,10,20.90
2018,08,10,14,11,20.80
2018,08,10,14,12,20.80
2018,08,10,14,13,20.80
2018,08,10,14,14,20.80
2018,08,10,14,15,20.70
2018,08,10,14,16,20.70
2018,08,10,14,17,20.70
2018,08,10,14,18,20.70
2018,08,10,14,19,20.70
2018,08,10,14,20,20.70
2018,08,10,14,21,20.60
2018,08,10,14,22,20.60
2018,08,10,14,23,20.60
2018,08,10,14,24,20.60
2018,08,10,14,25,20.60
2018,08,10,14,26,20.70
2018,08,10,14,27,20.70
2018,08,10,14,28,20.70
2018,08,10,14,29,20.70
2018,08,10,14,30,20.70
2018,08,10,14,31,20.80
2018,08,10,14,32,20.80
2018,08,10,14,33,20.70
2018,08,10,14,34,20.70
2018,08,10,14,35,20.70
2018,08,10,14,36,20.60
2018,08,10,14,37,20.60
2018,08,10,14,38,20.60
2018,08,10,14,39,20.70
2018,08,10,14,40,20.70
2018,08,10,14,41,20.80
2018,08,10,14,42,20.80
2018,08,10,14,43,20.90
2018,08,10,14,44,20.90
2018,08,10,14,45,20.90
2018,08,10,14,46,20.90
2018,08,10,14,47,20.90
2018,08,10,14,48,20.90
2018,08,10,14,49,20.90
2018,08,10,14,50,20.90
2018,08,10,14,51,20.90
2018,08,10,14,52,20.90
2018,08,10,14,53,20.90
2018,08,10,14,54,20.80
2018,08,10,14,55,20.70
2018,08,10,14,56,20.70
2018,08,10,14,57,20.80
2018,08,10,14,58,20.70
2018,08,10,14,59,20.60
2018,08,10,15,00,20.50
2018,08,10,15,01,20.40
2018,08,10,15,02,20.30
2018,08,10,15,03,20.20
2018,08,10,15,04,20.20
2018,08,10,15,05,20.10
2018,08,10,15,06,20.10
2018,08,10,15,07,20.10
2018,08,10,15,08,20.00
2018,08,10,15,09,19.90
2018,08,10,15,10,19.80
2018,08,10,15,11,19.90
2018,08,10,15,12,19.90
2018,08,10,15,13,19.90
2018,08,10,15,14,19.90
2018,08,10,15,15,19.90
2018,08,10,15,16,19.90
2018,08,10,15,17,19.80
2018,08,10,15,18,19.80
2018,08,10,15,19,19.70
2018,08,10,15,20,19.60
2018,08,10,15,21,19.60
2018,08,10,15,22,19.60
2018,08,10,15,23,19.50
2018,08,10,15,24,19.50
2018,08,10,15,25,19.40
2018,08,10,15,26,19.40
2018,08,10,15,27,19.40
2018,08,10,15,28,19.40
2018,08,10,15,29,19.30
2018,08,10,15,30,19.30
2018,08,10,15,31,19.30
2018,08,10,15,32,19.30
2018,08,10,15,33,19.30
2018,08,10,15,34,19.20
2018,08,10,15,35,19.10
2018,08,10,15,36,19.00
2018,08,10,15,37,18.90
2018,08,10,15,38,18.90
2018,08,10,15,39,18.80
2018,08,10,15,40,18.80
2018,08,10,15,41,18.70
2018,08,10,15,42,18.70
2018,08,10,15,43,18.70
2018,08,10,15,44,18.70
2018,08,10,15,45,18.80
2018,08,10,15,46,18.70
2018,08,10,15,47,18.80
2018,08,10,15,48,18.80
2018,08,10,15,49,18.70
2018,08,10,15,50,18.70
2018,08,10,15,51,18.70
2018,08,10,15,52,18.70
2018,08,10,15,53,18.60
2018,08,10,15,54,18.60
2018,08,10,15,55,18.50
2018,08,10,15,56,18.50
2018,08,10,15,57,18.50
2018,08,10,15,58,18.50
2018,08,10,15,59,18.40
2018,08,10,16,00,18.40
2018,08,10,16,01,18.40
2018,08,10,16,02,18.30
2018,08,10,16,03,18.20
2018,08,10,16,04,18.10
2018,08,10,16,05,18.10
2018,08,10,16,06,18.10
2018,08,10,16,07,18.10
2018,08,10,16,08,18.10
2018,08,10,16,09,18.10
2018,08,10,16,10,18.10
2018,08,10,16,11,18.20
2018,08,10,16,12,18.20
2018,08,10,16,13,18.30
2018,08,10,16,14,18.30
2018,08,10,16,15,18.30
2018,08,10,16,16,18.30
2018,08,10,16,17,18.30
2018,08,10,16,18,18.30
2018,08,10,16,19,18.30
2018,08,10,16,20,18.20
2018,08,10,16,21,18.10
2018,08,10,16,22,18.00
2018,08,10,16,23,18.00
2018,08,10,16,24,18.00
2018,08,10,16,25,18.00
2018,08,10,16,26,18.10
2018,08,10,16,27,18.10
2018,08,10,16,28,18.10
2018,08,10,16,29,18.10
2018,08,10,16,30,18.20
2018,08,10,16,31,18.20
2018,08,10,16,32,18.20
2018,08,10,16,33,18.20
2018,08,10,16,34,18.20
2018,08,10,16,35,18.20
2018,08,10,16,36,18.20
2018,08,10,16,37,18.20
2018,08,10,16,38,18.10
2018,08,10,16,39,18.00
2018,08,10,16,40,18.00
2018,08,10,16,41,17.90
2018,08,10,16,42,17.90
2018,08,10,16,43,17.90
2018,08,10,16,44,17.90
2018,08,10,16,45,18.00
2018,08,10,16,46,18.00
2018,08,10,16,47,18.00
2018,08,10,16,48,18.10
2018,08,10,16,49,18.10
2018,08,10,16,50,18.10
2018,08,10,16,51,18.10
2018,08,10,16,52,18.10
2018,08,10,16,53,18.00
2018,08,10,16,54,18.00
2018,08,10,16,55,18.10
2018,08,10,16,56,18.00
2018,08,10,16,57,18.00
2018,08,10,16,58,18.00
2018,08,10,16,59,18.00
2018,08,10,17,00,17.90
2018,08,10,17,01,17.90
2018,08,10,17,02,17.90
2018,08,10,17,03,17.90
2018,08,10,17,04,17.90
2018,08,10,17,05,17.90
2018,08,10,17,06,17.80
2018,08,10,17,07,17.80
2018,08,10,17,08,17.80
2018,08,10,17,09,17.80
2018,08,10,17,10,17.80
2018,08,10,17,11,17.80
2018,08,10,17,12,17.80
2018,08,10,17,13,17.80
2018,08,10,17,14,17.80
2018,08,10,17,15,17.80
2018,08,10,17,16,17.90
2018,08,10,17,17,17.90
2018,08,10,17,18,17.90
2018,08,10,17,19,17.90
2018,08,10,17,20,18.00
2018,08,10,17,21,18.00
2018,08,10,17,22,18.00
2018,08,10,17,23,18.00
2018,08,10,17,24,17.90
2018,08,10,17,25,17.90
2018,08,10,17,26,18.00
2018,08,10,17,27,18.00
2018,08,10,17,28,17.90
2018,08,10,17,29,17.90
2018,08,10,17,30,17.90
2018,08,10,17,31,17.90
2018,08,10,17,32,17.90
2018,08,10,17,33,17.90
2018,08,10,17,34,17.90
2018,08,10,17,35,17.90
2018,08,10,17,36,17.90
2018,08,10,17,37,17.90
2018,08,10,17,38,17.80
2018,08,10,17,39,17.80
2018,08,10,17,40,17.80
2018,08,10,17,41,17.80
2018,08,10,17,42,17.80
2018,08,10,17,43,17.70
2018,08,10,17,44,17.70
2018,08,10,17,45,17.70
2018,08,10,17,46,17.70
2018,08,10,17,47,17.70
2018,08,10,17,48,17.70
2018,08,10,17,49,17.70
2018,08,10,17,50,17.70
2018,08,10,17,51,17.70
2018,08,10,17,52,17.70
2018,08,10,17,53,17.70
2018,08,10,17,54,17.70
2018,08,10,17,55,17.70
2018,08,10,17,56,17.70
2018,08,10,17,57,17.70
2018,08,10,17,58,17.70
2018,08,10,17,59,17.60
2018,08,10,18,00,17.60
2018,08,10,18,01,17.50
2018,08,10,18,02,17.50
2018,08,10,18,03,17.40
2018,08,10,18,04,17.40
2018,08,10,18,05,17.40
2018,08,10,18,06,17.40
2018,08,10,18,07,17.40
2018,08,10,18,08,17.40
2018,08,10,18,09,17.40
2018,08,10,18,10,17.40
2018,08,10,18,11,17.40
2018,08,10,18,12,17.40
2018,08,10,18,13,17.40
2018,08,10,18,14,17.40
2018,08,10,18,15,17.40
2018,08,10,18,16,17.30
2018,08,10,18,17,17.30
2018,08,10,18,18,17.30
2018,08,10,18,19,17.20
2018,08,10,18,20,17.20
2018,08,10,18,21,17.20
2018,08,10,18,22,17.20
2018,08,10,18,23,17.20
2018,08,10,18,24,17.20
2018,08,10,18,25,17.20
2018,08,10,18,26,17.10
2018,08,10,18,27,17.10
2018,08,10,18,28,17.10
2018,08,10,18,29,17.10
2018,08,10,18,30,17.10
2018,08,10,18,31,17.10
2018,08,10,18,32,17.10
2018,08,10,18,33,17.10
2018,08,10,18,34,17.10
2018,08,10,18,35,17.10
2018,08,10,18,36,17.00
2018,08,10,18,37,17.00
2018,08,10,18,38,17.00
2018,08,10,18,39,17.00
2018,08,10,18,40,17.00
2018,08,10,18,41,17.00
2018,08,10,18,42,17.00
2018,08,10,18,43,17.00
2018,08,10,18,44,17.00
2018,08,10,18,45,17.00
2018,08,10,18,46,17.00
2018,08,10,18,47,17.00
2018,08,10,18,48,16.90
2018,08,10,18,49,16.90
2018,08,10,18,50,16.90
2018,08,10,18,51,16.90
2018,08,10,18,52,16.90
2018,08,10,18,53,16.90
2018,08,10,18,54,16.90
2018,08,10,18,55,16.90
2018,08,10,18,56,16.90
2018,08,10,18,57,16.90
2018,08,10,18,58,16.90
2018,08,10,18,59,16.90
2018,08,10,19,00,16.90
2018,08,10,19,01,16.90
2018,08,10,19,02,16.90
2018,08,10,19,03,16.90
2018,08,10,19,04,16.90
2018,08,10,19,05,16.90
2018,08,10,19,06,16.90
2018,08,10,19,07,16.90
2018,08,10,19,08,16.80
2018,08,10,19,09,16.80
2018,08,10,19,10,16.80
2018,08,10,19,11,16.90
2018,08,10,19,12,16.90
2018,08,10,19,13,16.90
2018,08,10,19,14,16.90
2018,08,10,19,15,16.90
2018,08,10,19,16,16.90
2018,08,10,19,17,16.90
2018,08,10,19,18,16.90
2018,08,10,19,19,16.90
2018,08,10,19,20,16.90
2018,08,10,19,21,16.90
2018,08,10,19,22,16.90
2018,08,10,19,23,16.90
2018,08,10,19,24,16.90
2018,08,10,19,25,16.90
